Weather History for KLVM - October, 2011

Change the Weather History Date:

Wednesday, October 5, 2011

  Actual Average Record
Temperature  
Mean Temperature 58 °F 49 °F  
Max Temperature 68 °F 63 °F 84 °F (1993)
Min Temperature 51 °F 34 °F 21 °F (2001)
Degree Days  
Heating Degree Days 6 16  
Month to date heating degree days 78  
Since 1 July heating degree days 487  
Cooling Degree Days 0 0  
Month to date cooling degree days 0  
Year to date cooling degree days 229  
Growing Degree Days 8 (Base 50)    
Moisture  
Dew Point 42 °F    
Average Humidity 60    
Maximum Humidity 88    
Minimum Humidity 37    
Precipitation  
Precipitation 0.02 in 0.05 in 0.81 in (1967)
Month to date precipitation 0.25  
Year to date precipitation 12.69  
Sea Level Pressure  
Sea Level Pressure 29.49 in    
Wind  
Wind Speed 8 mph (SW)    
Max Wind Speed 25 mph    
Max Gust Speed 31 mph    
Visibility 10 miles    
Events Rain    
T = Trace of Precipitation, MM = Missing Value Source: NWS Daily Summary

Daily Weather History Graph

Daily Weather History Graph

Search for Another Location

Airport or City:

Trip Planner

Search our weather history database for the weather conditions in past years. The results will help you decide how hot, cold, wet, or windy it might be!

Date:

Astronomy

Oct. 05, 2011 Rise Set
Actual Time 7:24 AM MDT 6:54 PM MDT
Civil Twilight 6:55 AM MDT 7:24 PM MDT
Nautical Twilight 6:20 AM MDT 7:58 PM MDT
Astronomical Twilight 5:45 AM MDT 8:33 PM MDT
Moon 3:53 PM MDT (10/5) 12:56 AM MDT (10/5)
Length of Visible Light 12h 29m
Length of Day
11h 29m
Waxing Gibbous, 67% of the Moon is Illuminated
Oct 5
Waxing Gibbous
Oct 11
Full
Oct 19
Last Quarter
Oct 26
New
Nov 2
First Quarter

Hourly Weather History & Observations

Time (MDT) Temp. Dew Point Humidity Pressure Visibility Wind Dir Wind Speed Gust Speed Precip Events Conditions
12:53 AM 57.9 °F 41.0 °F 53% 29.56 in 10.0 mi SW 4.6 mph - N/A   Scattered Clouds
1:53 AM 55.0 °F 39.0 °F 55% 29.55 in 10.0 mi Calm Calm - N/A   Clear
2:53 AM 57.0 °F 36.0 °F 45% 29.54 in 10.0 mi SSE 3.5 mph - N/A   Clear
3:53 AM 53.1 °F 36.0 °F 52% 29.53 in 10.0 mi South 5.8 mph - N/A   Partly Cloudy
4:53 AM 53.6 °F 37.4 °F 54% 29.63 in 10.0 mi SSE 3.5 mph - N/A   Scattered Clouds
5:53 AM 54.0 °F 36.0 °F 51% 29.51 in 10.0 mi SE 6.9 mph - N/A   Overcast
6:53 AM 55.9 °F 36.0 °F 47% 29.51 in 10.0 mi Calm Calm - N/A   Overcast
7:53 AM 59.0 °F 39.0 °F 48% 29.53 in 10.0 mi SW 21.9 mph 28.8 mph N/A   Overcast
8:53 AM 59.0 °F 37.9 °F 46% 29.51 in 10.0 mi WSW 15.0 mph 26.5 mph N/A   Overcast
9:53 AM 62.1 °F 39.0 °F 43% 29.49 in 10.0 mi East 9.2 mph - 0.00 in   Mostly Cloudy
10:53 AM 64.9 °F 37.9 °F 37% 29.47 in 10.0 mi Variable 3.5 mph - N/A   Mostly Cloudy
11:22 AM 62.6 °F 39.2 °F 42% 29.58 in 10.0 mi SW 25.3 mph 31.1 mph N/A   Overcast
11:53 AM 63.0 °F 41.0 °F 45% 29.46 in 10.0 mi WSW 20.7 mph - 0.00 in   Overcast
12:53 PM 66.2 °F 42.8 °F 43% 29.54 in 10.0 mi WNW 10.4 mph - N/A   Overcast
1:53 PM 66.0 °F 41.0 °F 40% 29.41 in 10.0 mi SW 16.1 mph - N/A   Overcast
2:53 PM 57.9 °F 48.9 °F 72% 29.44 in 10.0 mi SW 18.4 mph - 0.00 in Rain Light Rain
3:53 PM 57.0 °F 44.1 °F 62% 29.45 in 10.0 mi SW 24.2 mph 28.8 mph 0.00 in   Overcast
4:53 PM 55.4 °F 50.0 °F 82% 29.51 in 10.0 mi WNW 5.8 mph - N/A   Overcast
5:53 PM 54.0 °F 50.0 °F 86% 29.43 in 10.0 mi NNE 5.8 mph - 0.00 in   Overcast
6:53 PM 53.6 °F 50.0 °F 88% 29.51 in 9.0 mi East 6.9 mph - N/A Rain Light Rain
7:53 PM 51.8 °F 48.2 °F 88% 29.50 in 10.0 mi West 4.6 mph - N/A   Overcast
8:53 PM 53.1 °F 48.0 °F 83% 29.43 in 9.0 mi Variable 6.9 mph 16.1 mph 0.01 in Rain Light Rain
9:53 PM 52.0 °F 46.9 °F 83% 29.42 in 10.0 mi West 10.4 mph - 0.01 in   Overcast
10:53 PM 51.1 °F 45.0 °F 80% 29.40 in 10.0 mi West 6.9 mph - N/A   Clear
11:53 PM 52.0 °F 43.0 °F 71% 29.40 in 10.0 mi West 10.4 mph - N/A   Mostly Cloudy